ZL4VM-1 Weather Reports


time (UTC)temp
C
wind
direction
speed
KPH
gust
KPH
rain 1hr
cm
rain 24hr
cm
rain mn
cm
humidity
%
barometer
mb
20260505100643 7 0 0.0 0.0 0.00 0.00 0.00 97 1022.5
20260505095743 7 0 0.0 0.0 0.00 0.00 0.00 97 1022.8
20260505094843 7 353 0.0 3.2 0.00 0.00 0.00 97 1022.8
20260505093943 7 1 1.6 3.2 0.00 0.00 0.00 97 1022.8
20260505093043 7 1 0.0 3.2 0.00 0.00 0.00 97 1022.8
20260505092143 8 1 3.2 4.8 0.00 0.00 0.00 99 1022.9
20260505091243 8 1 1.6 4.8 0.00 0.00 0.00 99 1022.8
20260505090343 7 51 0.0 3.2 0.00 0.00 0.00 97 1022.8
20260505085443 8 30 0.0 4.8 0.00 0.00 0.00 99 1023.0
20260505084543 8 15 1.6 6.4 0.00 0.00 0.00 99 1023.0
20260505083643 8 59 0.0 8.0 0.00 0.00 0.00 99 1023.0
20260505081843 8 35 0.0 6.4 0.00 0.00 0.00 99 1023.2
20260505080943 8 45 0.0 6.4 0.00 0.00 0.00 99 1023.3
20260505080043 8 1 0.0 12.9 0.00 0.00 0.00 99 1023.3
20260505075143 9 1 3.2 8.0 0.00 0.00 0.00 99 1023.4
20260505071543 9 353 0.0 8.0 0.00 0.00 0.00 99 1023.6
20260505070643 9 27 1.6 12.9 0.00 0.00 0.00 98 1023.6
20260505065743 9 326 4.8 16.1 0.00 0.00 0.00 98 1023.7
20260505064843 9 349 4.8 11.3 0.00 0.00 0.00 97 1023.7
20260505063943 9 357 3.2 11.3 0.00 0.00 0.00 97 1023.7
20260505063043 9 12 6.4 12.9 0.00 0.00 0.00 97 1023.8
20260505062143 10 10 0.0 25.7 0.00 0.00 0.00 97 1023.8
20260505061243 10 41 12.9 25.7 0.00 0.00 0.00 96 1023.9
20260505060343 10 66 4.8 11.3 0.00 0.00 0.00 96 1023.7
20260505055443 10 359 0.0 16.1 0.00 0.00 0.00 94 1024.0
20260505054543 10 20 6.4 17.7 0.00 0.00 0.00 94 1023.7
20260505052744 10 13 3.2 19.3 0.00 0.00 0.00 93 1023.9
20260505051843 10 12 6.4 20.9 0.00 0.00 0.00 92 1023.9
20260505050943 10 357 14.5 20.9 0.00 0.00 0.00 90 1023.9
20260505041543 13 17 6.4 17.7 0.00 0.00 0.00 75 1024.4
20260505040643 13 21 3.2 12.9 0.00 0.00 0.00 74 1024.6
20260505034842 14 61 4.8 17.7 0.00 0.00 0.00 74 1024.7
20260505033943 14 358 3.2 22.5 0.00 0.00 0.00 74 1024.5
20260505033043 14 20 3.2 17.7 0.00 0.00 0.00 73 1024.4
20260505032143 14 76 8.0 17.7 0.00 0.00 0.00 72 1024.6
20260505031242 15 72 4.8 16.1 0.00 0.00 0.00 70 1024.7
20260505030342 15 21 8.0 17.7 0.00 0.00 0.00 69 1024.9
20260505025443 15 309 6.4 12.9 0.00 0.00 0.00 70 1025.0
20260505023642 15 12 6.4 17.7 0.00 0.00 0.00 72 1024.9
20260505022743 14 64 6.4 14.5 0.00 0.00 0.00 74 1025.0
20260505020943 13 103 8.0 17.7 0.00 0.00 0.00 78 1025.2
20260505020042 14 73 11.3 14.5 0.00 0.00 0.00 74 1025.4
20260505015143 14 11 6.4 14.5 0.00 0.00 0.00 75 1025.6
20260505014242 14 59 6.4 16.1 0.00 0.00 0.00 75 1025.5
20260505013343 13 63 6.4 20.9 0.00 0.00 0.00 76 1025.7
20260505011542 15 2 3.2 14.5 0.00 0.00 0.00 70 1025.8
20260505010642 14 33 6.4 14.5 0.00 0.00 0.00 74 1025.9
20260505005743 13 90 3.2 12.9 0.00 0.00 0.00 74 1026.3
20260505004843 13 52 4.8 17.7 0.00 0.00 0.00 74 1026.5
20260505003942 13 90 8.0 14.5 0.00 0.00 0.00 78 1026.7
20260505003042 12 93 6.4 16.1 0.00 0.00 0.00 77 1026.6
20260505002142 13 67 6.4 17.7 0.00 0.00 0.00 75 1026.8
20260505001242 13 18 4.8 14.5 0.00 0.00 0.00 72 1027.0
20260505000343 14 65 3.2 14.5 0.00 0.00 0.00 68 1027.1
20260504235442 14 322 3.2 12.9 0.00 0.00 0.00 68 1027.2
20260504234542 14 42 3.2 12.9 0.00 0.00 0.00 71 1027.4
20260504232742 14 19 3.2 14.5 0.00 0.00 0.00 69 1027.6
20260504231842 15 33 6.4 14.5 0.00 0.00 0.00 71 1027.7
20260504230942 13 71 3.2 11.3 0.00 0.00 0.00 71 1027.8
20260504230042 13 76 3.2 9.7 0.00 0.00 0.00 79 1027.7
20260504225142 12 77 1.6 12.9 0.00 0.00 0.00 88 1027.7
20260504224242 11 90 3.2 11.3 0.00 0.00 0.00 95 1028.0
20260504223342 10 85 3.2 11.3 0.00 0.00 0.00 99 1028.0
20260504222442 10 27 3.2 8.0 0.00 0.00 0.00 99 1028.1
20260504221542 10 90 0.0 6.4 0.00 0.00 0.00 99 1027.9
20260504220642 10 87 4.8 8.0 0.00 0.00 0.00 99 1028.4
20260504214842 10 68 1.6 4.8 0.00 0.00 0.00 99 1028.4
20260504213942 9 76 3.2 6.4 0.00 0.00 0.00 99 1028.2
20260504213042 9 79 1.6 6.4 0.00 0.00 0.00 99 1028.6
20260504211242 8 1 0.0 3.2 0.00 0.00 0.00 99 1028.8
20260504210342 8 22 1.6 3.2 0.00 0.00 0.00 99 1028.7
20260504205442 8 73 0.0 3.2 0.00 0.00 0.00 99 1029.1
20260504204542 8 90 0.0 3.2 0.00 0.00 0.00 99 1028.7
20260504203642 7 90 0.0 1.6 0.00 0.00 0.00 97 1028.9
20260504202742 7 90 0.0 3.2 0.00 0.00 0.00 99 1029.0
20260504201842 7 52 0.0 3.2 0.00 0.00 0.00 97 1028.8
20260504200942 7 69 1.6 3.2 0.00 0.00 0.00 97 1028.8
20260504200042 7 59 1.6 3.2 0.00 0.00 0.00 97 1029.0
20260504194242 7 90 0.0 3.2 0.00 0.00 0.00 97 1029.0
20260504193342 7 90 1.6 3.2 0.00 0.00 0.00 97 1028.9
20260504192443 6 0 0.0 0.0 0.00 0.00 0.00 98 1028.8
20260504191542 7 90 0.0 3.2 0.00 0.00 0.00 97 1029.0
20260504190642 7 90 0.0 3.2 0.00 0.00 0.00 97 1029.0
20260504185742 6 90 1.6 3.2 0.00 0.00 0.00 98 1029.0
20260504183942 6 90 0.0 3.2 0.00 0.00 0.00 98 1029.0
20260504183042 6 90 0.0 3.2 0.00 0.00 0.00 98 1029.0
20260504182142 6 0 0.0 0.0 0.00 0.00 0.00 98 1029.0
20260504180342 6 90 0.0 1.6 0.00 0.00 0.00 98 1029.0
20260504175442 6 94 0.0 3.2 0.00 0.00 0.00 98 1029.2
20260504174542 6 90 0.0 3.2 0.00 0.00 0.00 98 1029.1
20260504173642 6 90 0.0 1.6 0.00 0.00 0.00 98 1029.1
20260504172742 6 0 0.0 0.0 0.00 0.00 0.00 98 1029.1
20260504171842 7 0 0.0 0.0 0.00 0.00 0.00 97 1029.1
20260504170942 7 0 0.0 0.0 0.00 0.00 0.00 97 1029.2
20260504150342 7 240 1.6 4.8 0.00 0.00 0.00 97 1029.6
20260504140941 7 225 0.0 1.6 0.00 0.00 0.00 97 1029.9
20260504130641 8 225 0.0 3.2 0.00 0.00 0.00 99 1029.5